This demonstration page uses our WeatherBlox Daily Observations layout. Learn more.

Left ArrowRight Arrow

36.19886, -115.1175

Hourly Observations for December 28, 2020

Temp ( °F °C ) Dew Point ( °F °C ) Humidity (%) Winds ( mph kmh ) Pressure ( in mb ) Visibility ( mi km ) Precip ( " mm )
12:53 am 00:53 Clear 41 5 24 -4.4 51 51 SW 5 7 29.85 1011 10 16.0934 0 0
1:53 am 01:53 Clear 42 5.6 24 -4.4 49 49 W 5 7 29.83 1010 10 16.0934 0 0
2:53 am 02:53 Clear 43 6.1 25 -3.9 49 49 Calm 29.81 1009 10 16.0934 0 0
3:53 am 03:53 Clear 42 5.6 25 -3.9 51 51 Calm 29.79 1009 10 16.0934 0 0
4:53 am 04:53 Clear 43 6.1 25 -3.9 49 49 Calm 29.79 1009 10 16.0934 0 0
5:53 am 05:53 Mostly Clear 44 6.7 25 -3.9 47 47 Calm 29.8 1009 10 16.0934 0 0
6:53 am 06:53 Mostly Cloudy 41 5 25 -3.9 53 53 Calm 29.79 1009 10 16.0934 0 0
7:53 am 07:53 Cloudy 43 6.1 25 -3.9 49 49 Calm 29.8 1009 10 16.0934 0 0
8:53 am 08:53 Cloudy 44 6.7 26 -3.3 49 49 ENE 5 7 29.82 1010 10 16.0934 0 0
9:53 am 09:53 Cloudy with Light Rain 46 7.8 26 -3.3 46 46 Calm 29.83 1010 10 16.0934 0.001 0.001
10:53 am 10:53 Cloudy 46 7.8 32 0 58 58 ENE 7 11 29.82 1010 10 16.0934 0.001 0.001
11:53 am 11:53 Mostly Cloudy 50 10 31 -0.6 48 48 ENE 8 13 29.78 1009 10 16.0934 0 0
12:53 pm 12:53 Mostly Sunny 48 8.9 33 0.6 56 56 NW 16 26 29.79 1009 10 16.0934 0 0
1:53 pm 13:53 Cloudy 49 9.4 33 0.6 55 55 NNW 6 9 29.8 1009 10 16.0934 0 0
2:53 pm 14:53 Partly Cloudy 49 9.4 33 0.6 55 55 NW 8 13 29.81 1009 10 16.0934 0 0
3:53 pm 15:53 Mostly Cloudy 49 9.4 33 0.6 55 55 NW 6 9 29.83 1010 10 16.0934 0 0
4:53 pm 16:53 Clear 47 8.3 32 0 56 56 NW 7 11 29.85 1011 10 16.0934 0 0
5:53 pm 17:53 Clear 47 8.3 32 0 56 56 Calm 29.86 1011 10 16.0934 0 0
6:53 pm 18:53 Clear 44 6.7 32 0 63 63 NNW 7 11 29.89 1012 10 16.0934 0 0
7:53 pm 19:53 Clear 44 6.7 32 0 63 63 NW 6 9 29.91 1013 10 16.0934 0 0
8:53 pm 20:53 Mostly Cloudy 43 6.1 32 0 65 65 WNW 5 7 29.93 1013 10 16.0934 0 0
9:53 pm 21:53 Clear 43 6.1 32 0 65 65 NNW 5 7 29.94 1014 10 16.0934 0 0
10:53 pm 22:53 Mostly Cloudy 40 4.4 30 -1.1 68 68 WNW 5 7 29.96 1014 10 16.0934 0 0
11:53 pm 23:53 Cloudy 47 8.3 32 0 56 56 NW 12 19 29.94 1014 10 16.0934 0 0

Powered by AerisWeather